Barking Sands, HI

7:54 AM HST on May 26, 2018 (GMT -1000)
Barking Sands PMRF

Weather History for PHBK - August, 2014

Change the Weather History Date:

Tuesday, August 12, 2014

  Actual Average Record
Temperature  
Mean Temperature 78 °F -  
Max Temperature 84 °F 88 °F 92 °F (1968)
Min Temperature 73 °F 67 °F 65 °F (1950)
Cooling Degree Days 14    
Growing Degree Days 28 (Base 50)    
Moisture  
Dew Point 66 °F    
Average Humidity 62    
Maximum Humidity 76    
Minimum Humidity 51    
Precipitation  
Precipitation 0.00 in - - ()
Sea Level Pressure  
Sea Level Pressure 30.02 in    
Wind  
Wind Speed 6 mph (NE)    
Max Wind Speed 20 mph    
Max Gust Speed 25 mph    
Visibility 10 miles    
Events      
Averages and records for this station are not official NWS values.
T = Trace of Precipitation, MM = Missing Value Source: NWS Daily Summary

Daily Weather History Graph

Daily Weather History Graph

Search for Another Location

Airport or City:

Astronomy

Aug. 12, 2014 Rise Set
Actual Time 6:15 AM HST 7:12 PM HST
Civil Twilight 5:52 AM HST 7:35 PM HST
Nautical Twilight 5:24 AM HST 8:03 PM HST
Astronomical Twilight 4:56 AM HST 8:31 PM HST
Moon 8:54 PM HST (8/12) 8:23 AM HST (8/12)
Length of Visible Light 13h 43m
Length of Day
12h 56m
Waning Gibbous, 93% of the Moon is Illuminated
Aug 12
Waning Gibbous
Aug 17
Last Quarter
Aug 25
New
Sep 2
First Quarter
Sep 8
Full

Hourly Weather History & Observations

Time (HST) Temp. Heat Index Dew Point Humidity Pressure Visibility Wind Dir Wind Speed Gust Speed Precip Events Conditions
12:56 AM - - - N/A% 30.06 in 10.0 mi NE 3.5 mph - N/A   Partly Cloudy
1:11 AM - - - N/A% 30.04 in 10.0 mi NE 4.6 mph - N/A   Mostly Cloudy
1:27 AM - - - N/A% 30.04 in 10.0 mi NE 5.8 mph - N/A   Scattered Clouds
1:56 AM - - - N/A% 30.04 in 10.0 mi Calm Calm - N/A   Partly Cloudy
2:56 AM - - - N/A% 30.02 in 10.0 mi NE 4.6 mph - N/A   Partly Cloudy
3:56 AM - - - N/A% 30.01 in 10.0 mi ENE 4.6 mph - N/A   Clear
4:56 AM - - - N/A% 30.01 in 10.0 mi ENE 3.5 mph - N/A   Clear
5:56 AM - - - N/A% 30.02 in 10.0 mi ENE 4.6 mph - N/A   Partly Cloudy
6:11 AM - - - N/A% 30.02 in 10.0 mi ENE 4.6 mph - N/A   Mostly Cloudy
7:56 AM 79.0 °F - 66.0 °F 64% 30.04 in 10.0 mi North 4.6 mph - N/A   Clear
8:56 AM 82.0 °F 83.8 °F 64.9 °F 56% 30.04 in 10.0 mi North 9.2 mph - N/A   Clear
9:56 AM 84.0 °F 85.8 °F 64.9 °F 53% 30.04 in 10.0 mi North 13.8 mph - N/A   Partly Cloudy
10:56 AM 84.0 °F 86.3 °F 66.0 °F 55% 30.04 in 10.0 mi North 16.1 mph 21.9 mph N/A   Clear
11:56 AM 84.9 °F 88.2 °F 68.0 °F 57% 30.02 in 10.0 mi NNW 19.6 mph 25.3 mph N/A   Scattered Clouds
12:56 PM 84.0 °F 86.5 °F 66.9 °F 56% 30.01 in 10.0 mi North 17.3 mph 25.3 mph N/A   Scattered Clouds
1:56 PM 84.0 °F 86.3 °F 66.0 °F 55% 30.00 in 10.0 mi Variable 3.5 mph - N/A   Overcast
2:56 PM 82.9 °F 86.5 °F 69.1 °F 63% 29.99 in 10.0 mi South 8.1 mph - N/A   Mostly Cloudy
3:56 PM 82.9 °F 84.6 °F 64.9 °F 54% 29.99 in 10.0 mi WNW 5.8 mph - N/A   Scattered Clouds
4:56 PM 82.9 °F 84.0 °F 63.0 °F 51% 29.98 in 10.0 mi WNW 6.9 mph - N/A   Scattered Clouds
5:56 PM 82.9 °F 85.8 °F 68.0 °F 60% 29.98 in 10.0 mi North 15.0 mph 20.7 mph N/A   Partly Cloudy
6:56 PM 81.0 °F 83.0 °F 66.0 °F 60% 29.99 in 10.0 mi East 9.2 mph - N/A   Mostly Cloudy
7:56 PM 78.1 °F - 70.0 °F 76% 30.01 in 10.0 mi Calm Calm - N/A   Clear
8:56 PM 77.0 °F - 66.9 °F 71% 30.02 in 10.0 mi Calm Calm - N/A   Clear
9:56 PM - - - N/A% 30.04 in 10.0 mi ENE 4.6 mph - N/A   Clear
10:46 PM 73.4 °F - 64.4 °F 73% 30.03 in 10.0 mi ENE 4.6 mph - N/A   Mostly Cloudy
10:56 PM 75.0 °F - 63.0 °F 66% 30.04 in 10.0 mi ENE 4.6 mph - N/A   Mostly Cloudy
11:12 PM 73.4 °F - 60.8 °F 65% 30.03 in 10.0 mi ENE 4.6 mph - N/A   Scattered Clouds
11:56 PM 73.9 °F - 66.0 °F 76% 30.03 in 10.0 mi ENE 4.6 mph - N/A   Partly Cloudy